• Join FlightAware (Why Join?)
  • Login
  • US Flag 
12:58PM EDT


 

Airport Tracker/Info


-or-


 

Live Flight TrackerFlight Track Log ✈ NWA188 ✈ 21-Oct-2009 ✈ KSAN - KMSP

Flight Track Log - Related Links

Times and Time Zones

All times are in EDT time to prevent confusion due to time zone crossing. See the NWA188 flight status page for this flight to view local times or setup timezone preferences in your user account.

Time Position Orientation Groundspeed Altitude Reporting Facility
EDT Latitude Longitude Course Direction KTS MPH feet Rate Location/Type
06:00PM 32.7406 -117.2270 288° West 35,000  Level Los Angeles Center
06:01PM 32.7547 -117.2790 225° Southwest 204 235 2,500 -15,300 Descending Los Angeles Center
06:02PM 32.7147 -117.3260 140° Southeast 205 236 4,400 2,160 Climbing Los Angeles Center
06:03PM 32.6547 -117.2660 102° East 177 204 6,900 2,400 Climbing Los Angeles Center
06:04PM 32.6389 -117.1770 104° East 205 236 9,300 2,220 Climbing Los Angeles Center
06:05PM 32.6186 -117.0830 108° East 241 277 11,400 2,100 Climbing Los Angeles Center
06:06PM 32.5922 -116.9860 96° East 280 322 13,500 1,680 Climbing Los Angeles Center
06:07PM 32.5825 -116.8850 63° Northeast 300 345 14,800 1,020 Climbing Los Angeles Center
06:08PM 32.6250 -116.7870 81° East 308 354 15,600 660 Climbing Los Angeles Center
06:09PM 32.6422 -116.6560 84° East 347 399 16,200 600 Climbing Los Angeles Center
06:10PM 32.6553 -116.5110 84° East 402 463 16,800 1,140 Climbing Los Angeles Center
06:11PM 32.6703 -116.3430 83° East 453 521 18,500 1,560 Climbing Los Angeles Center
06:12PM 32.6872 -116.1880 84° East 471 542 20,000 1,320 Climbing Los Angeles Center
06:13PM 32.7019 -116.0300 85° East 471 542 21,200 1,140 Climbing Los Angeles Center
06:14PM 32.7142 -115.8690 83° East 476 548 22,300 900 Climbing Los Angeles Center
06:15PM 32.7303 -115.7090 84° East 481 554 23,100 840 Climbing Los Angeles Center
06:16PM 32.7444 -115.5480 87° East 486 559 24,000 1,080 Climbing Los Angeles Center
06:17PM 32.7517 -115.3800 89° East 492 566 25,300 1,200 Climbing Los Angeles Center
06:18PM 32.7547 -115.2120 89° East 497 572 26,400 1,080 Climbing Los Angeles Center
06:19PM 32.7578 -115.0490 89° East 497 572 27,500 1,200 Climbing Los Angeles Center
06:20PM 32.7603 -114.8860 88° East 497 572 28,800 1,140 Climbing Los Angeles Center
06:21PM 32.7647 -114.7230 89° East 497 572 29,800 1,020 Climbing Los Angeles Center
06:22PM 32.7669 -114.5630 90° East 492 566 30,900 960 Climbing Los Angeles Center
06:23PM 32.7672 -114.3670 89° East 495 570 32,000 840 Climbing Albuquerque Center
06:24PM 32.7700 -114.2090 89° East 488 562 32,800 480 Climbing Albuquerque Center
06:25PM 32.7728 -114.0510 84° East 483 556 33,000 360 Climbing Albuquerque Center
06:26PM 32.7856 -113.8940 80° East 477 549 33,600 600 Climbing Albuquerque Center
06:27PM 32.8083 -113.7400 78° East 477 549 34,200 600 Climbing Albuquerque Center
06:28PM 32.8353 -113.5870 66° East 477 549 34,800 360 Climbing Albuquerque Center
06:29PM 32.8883 -113.4470 66° East 471 542 35,000 60 Climbing Albuquerque Center
06:30PM 32.9392 -113.3080 65° Northeast 461 531 35,000  Level Albuquerque Center
06:31PM 32.9942 -113.1650 66° East 461 531 35,000  Level Albuquerque Center
06:32PM 33.0397 -113.0420 66° East 461 531 35,000  Level Albuquerque Center
06:33PM 33.0900 -112.9040 66° East 456 525 35,000  Level Albuquerque Center
06:34PM 33.1422 -112.7640 66° East 456 525 35,000  Level Albuquerque Center
06:35PM 33.1944 -112.6260 67° East 451 519 35,000  Level Albuquerque Center
06:36PM 33.2419 -112.4900 66° East 451 519 35,000  Level Albuquerque Center
06:37PM 33.2936 -112.3540 66° East 451 519 35,000  Level Albuquerque Center
06:38PM 33.3453 -112.2150 67° East 451 519 35,000  Level Albuquerque Center
06:39PM 33.3944 -112.0790 67° East 451 519 35,000  Level Albuquerque Center
06:40PM 33.4436 -111.9420 66° East 445 512 35,000  Level Albuquerque Center
06:41PM 33.4947 -111.8060 67° East 445 512 35,000  Level Albuquerque Center
06:42PM 33.5433 -111.6690 67° East 450 518 35,000  Level Albuquerque Center
06:43PM 33.5922 -111.5310 66° East 450 518 35,000  Level Albuquerque Center
06:44PM 33.6428 -111.3940 67° East 450 518 35,000  Level Albuquerque Center
06:45PM 33.6911 -111.2570 67° East 450 518 35,000  Level Albuquerque Center
06:46PM 33.7439 -111.1040 66° East 450 518 35,000  Level Albuquerque Center
06:47PM 33.7894 -110.9820 67° East 445 512 35,000  Level Albuquerque Center
06:48PM 33.8442 -110.8290 67° East 445 512 35,000  Level Albuquerque Center
06:49PM 33.8917 -110.6910 67° East 451 519 35,000  Level Albuquerque Center
06:50PM 33.9392 -110.5550 67° East 443 510 35,000  Level Albuquerque Center
06:51PM 33.9889 -110.4140 69° East 443 510 35,000  Level Albuquerque Center
06:52PM 34.0319 -110.2760 67° East 445 512 35,000  Level Albuquerque Center
06:53PM 34.0811 -110.1370 68° East 445 512 35,000  Level Albuquerque Center
06:54PM 34.1283 -109.9950 69° East 456 525 35,000  Level Albuquerque Center
06:55PM 34.1731 -109.8540 67° East 450 518 35,000  Level Albuquerque Center
06:56PM 34.2172 -109.7290 68° East 444 511 35,000  Level Albuquerque Center
06:57PM 34.2681 -109.5780 68° East 444 511 35,000  Level Albuquerque Center
06:58PM 34.3122 -109.4430 66° East 444 511 35,000  Level Albuquerque Center
06:59PM 34.3625 -109.3060 67° East 437 503 35,000  Level Albuquerque Center
07:00PM 34.4086 -109.1710 70° East 430 495 35,000  Level Albuquerque Center
07:01PM 34.4500 -109.0360 68° East 430 495 35,000  Level Albuquerque Center
07:02PM 34.4958 -108.8980 68° East 435 501 35,000  Level Albuquerque Center
07:03PM 34.5414 -108.7610 69° East 435 501 35,000  Level Albuquerque Center
07:04PM 34.5844 -108.6250 68° East 435 501 35,000  Level Albuquerque Center
07:05PM 34.6297 -108.4890 69° East 435 501 35,000  Level Albuquerque Center
07:06PM 34.6728 -108.3490 69° East 435 501 35,000  Level Albuquerque Center
07:07PM 34.7175 -108.2100 70° East 435 501 35,000  Level Albuquerque Center
07:08PM 34.7603 -108.0660 67° East 435 501 35,000  Level Albuquerque Center
07:09PM 34.8089 -107.9280 68° East 440 506 35,000  Level Albuquerque Center
07:10PM 34.8556 -107.7840 69° East 445 512 35,000  Level Albuquerque Center
07:11PM 34.8975 -107.6520 69° East 459 528 35,000  Level Albuquerque Center
07:12PM 34.9458 -107.4960 68° East 453 521 35,000  Level Albuquerque Center
07:13PM 34.9919 -107.3540 70° East 448 516 35,000  Level Albuquerque Center
07:14PM 35.0314 -107.2240 68° East 448 516 35,000  Level Albuquerque Center
07:15PM 35.0772 -107.0820 70° East 448 516 35,000  Level Albuquerque Center
07:16PM 35.1247 -106.9240 69° East 448 516 35,000  Level Albuquerque Center
07:17PM 35.1700 -106.7790 70° East 448 516 35,000 60 Level Albuquerque Center
07:18PM 35.2089 -106.6490 70° East 448 516 35,200 360 Climbing Albuquerque Center
07:19PM 35.2558 -106.4940 69° East 443 510 35,800 300 Climbing Albuquerque Center
07:20PM 35.3006 -106.3510 70° East 451 519 35,900 300 Climbing Albuquerque Center
07:21PM 35.3453 -106.2000 69° East 457 526 36,500 540 Climbing Albuquerque Center
07:22PM 35.3897 -106.0590 71° East 449 517 37,000 240 Climbing Albuquerque Center
07:23PM 35.4258 -105.9310 71° East 449 517 37,000  Level Albuquerque Center
07:24PM 35.4697 -105.7770 70° East 456 525 37,000  Level Albuquerque Center
07:25PM 35.5136 -105.6260 69° East 456 525 37,000  Level Albuquerque Center
07:26PM 35.5594 -105.4790 70° East 462 532 37,000  Level Albuquerque Center
07:27PM 35.6086 -105.3100 64° Northeast 472 543 37,000  Level Albuquerque Center
07:28PM 35.6625 -105.1730 48° Northeast 472 543 37,000  Level Albuquerque Center
07:29PM 35.7603 -105.0390 37° Northeast 472 543 37,100  Climbing Albuquerque Center
07:30PM 35.8689 -104.9390 37° Northeast 472 543 37,000 -60 Descending Albuquerque Center
07:31PM 35.9753 -104.8410 37° Northeast 481 554 37,000  Level Albuquerque Center
07:32PM 36.0817 -104.7400 37° Northeast 475 547 37,000  Level Albuquerque Center
07:33PM 36.1881 -104.6410 38° Northeast 475 547 37,000  Level Albuquerque Center
07:34PM 36.2942 -104.5370 38° Northeast 475 547 37,000  Level Albuquerque Center
07:35PM 36.4000 -104.4350 37° Northeast 480 552 37,000  Level Albuquerque Center
07:36PM 36.4939 -104.3460 37° Northeast 472 543 37,000  Level Albuquerque Center
07:37PM 36.6158 -104.2300 38° Northeast 475 547 37,000  Level Denver Center
07:38PM 36.7219 -104.1260 37° Northeast 488 562 37,000  Level Denver Center
07:39PM 36.8203 -104.0340 38° Northeast 488 562 37,000  Level Denver Center
07:40PM 36.9364 -103.9210 38° Northeast 483 556 37,000  Level Denver Center
07:41PM 37.0425 -103.8160 39° Northeast 483 556 37,000  Level Denver Center
07:42PM 37.1361 -103.7220 38° Northeast 483 556 37,000  Level Denver Center
07:43PM 37.2542 -103.6080 37° Northeast 483 556 37,000  Level Denver Center
07:44PM 37.3619 -103.5070 37° Northeast 483 556 37,000  Level Denver Center
07:45PM 37.4597 -103.4140 39° Northeast 483 556 37,000  Level Denver Center
07:46PM 37.5631 -103.3100 37° Northeast 478 550 37,000  Level Denver Center
07:47PM 37.6808 -103.1980 37° Northeast 473 544 37,000  Level Denver Center
07:48PM 37.7864 -103.0980 38° Northeast 473 544 37,000  Level Denver Center
07:49PM 37.8814 -103.0040 38° Northeast 473 544 37,000  Level Denver Center
07:51PM 38.0172 -102.8710 39° Northeast 473 544 37,000  Level Denver Center
07:52PM 38.1181 -102.7660 36° Northeast 473 544 37,000  Level Denver Center
07:53PM 38.2272 -102.6650 32° Northeast 473 544 37,000  Level Denver Center
07:54PM 38.3308 -102.5830 33° Northeast 479 551 37,000  Level Denver Center
07:55PM 38.4422 -102.4890 32° Northeast 479 551 37,000  Level Denver Center
07:56PM 38.5661 -102.3890 34° Northeast 479 551 37,000  Level Denver Center
07:57PM 38.6772 -102.2920 32° Northeast 484 557 37,000  Level Denver Center
07:58PM 38.7925 -102.2000 33° Northeast 484 557 37,000  Level Denver Center
07:59PM 38.8936 -102.1140 33° Northeast 490 564 37,000  Level Denver Center
08:00PM 39.0189 -102.0100 34° Northeast 484 557 37,000  Level Denver Center
08:01PM 39.1300 -101.9140 33° Northeast 484 557 37,000  Level Denver Center
08:02PM 39.2428 -101.8180 35° Northeast 484 557 37,000  Level Denver Center
08:03PM 39.3456 -101.7260 30° Northeast 494 568 37,000  Level Denver Center
08:04PM 39.4750 -101.6310 28° Northeast 488 562 37,100  Climbing Denver Center
08:05PM 39.5925 -101.5490 28° Northeast 476 548 37,000 -60 Descending Denver Center
08:06PM 39.6997 -101.4740 30° Northeast 483 556 37,000  Level Denver Center
08:07PM 39.8169 -101.3870 29° Northeast 483 556 37,000  Level Denver Center
08:08PM 39.9464 -101.2940 29° Northeast 483 556 37,000  Level Denver Center
08:09PM 40.0633 -101.2090 29° Northeast 483 556 37,000  Level Denver Center
08:10PM 40.1706 -101.1320 29° Northeast 483 556 37,000  Level Denver Center
08:11PM 40.2853 -101.0470 29° Northeast 483 556 37,000  Level Denver Center
08:12PM 40.4144 -100.9520 35° Northeast 483 556 37,000  Level Denver Center
08:13PM 40.5222 -100.8530 39° Northeast 478 550 37,000  Level Denver Center
08:14PM 40.6133 -100.7550 40° Northeast 473 544 37,000  Level Denver Center
08:15PM 40.7261 -100.6300 39° Northeast 473 544 37,000  Level Denver Center
08:16PM 40.8311 -100.5190 39° Northeast 481 554 37,000  Level Denver Center
08:17PM 40.9239 -100.4200 38° Northeast 481 554 37,000  Level Denver Center
08:18PM 41.0406 -100.2970 40° Northeast 481 554 37,000  Level Denver Center
08:19PM 41.1447 -100.1820 40° Northeast 481 554 37,000  Level Denver Center
08:20PM 41.2492 -100.0670 40° Northeast 481 554 37,000  Level Denver Center
08:21PM 41.3414 -99.9639 39° Northeast 481 554 37,000  Level Denver Center
08:22PM 41.4556 -99.8417 40° Northeast 487 560 37,000  Level Denver Center
08:23PM 41.5614 -99.7225 39° Northeast 487 560 37,000  Level Denver Center
08:24PM 41.6675 -99.6069 41° Northeast 471 542 37,000  Level Minneapolis Center
08:25PM 41.7742 -99.4842 41° Northeast 478 550 37,000  Level Minneapolis Center
08:26PM 41.8789 -99.3633 39° Northeast 484 557 37,000  Level Minneapolis Center
08:27PM 41.9894 -99.2431 40° Northeast 497 572 37,000  Level Minneapolis Center
08:28PM 42.0958 -99.1217 41° Northeast 497 572 37,000  Level Minneapolis Center
08:29PM 42.2044 -98.9944 40° Northeast 497 572 37,000  Level Minneapolis Center
08:30PM 42.3217 -98.8592 39° Northeast 502 578 37,000  Level Minneapolis Center
08:31PM 42.4317 -98.7369 46° Northeast 502 578 37,000  Level Minneapolis Center
08:32PM 42.5300 -98.5989 50° Northeast 502 578 37,000  Level Minneapolis Center
08:33PM 42.6200 -98.4544 49° Northeast 502 578 37,000  Level Minneapolis Center
08:34PM 42.7119 -98.3094 50° Northeast 502 578 37,000  Level Minneapolis Center
08:35PM 42.8017 -98.1639 49° Northeast 502 578 37,000  Level Minneapolis Center
08:36PM 42.8931 -98.0211 51° Northeast 502 578 37,000  Level Minneapolis Center
08:37PM 42.9825 -97.8717 49° Northeast 502 578 37,000  Level Minneapolis Center
08:38PM 43.0758 -97.7253 50° Northeast 509 586 37,000  Level Minneapolis Center
08:39PM 43.1667 -97.5781 50° Northeast 509 586 37,000  Level Minneapolis Center
08:40PM 43.2556 -97.4306 50° Northeast 509 586 37,000  Level Minneapolis Center
08:41PM 43.3483 -97.2797 49° Northeast 509 586 37,000  Level Minneapolis Center
08:42PM 43.4408 -97.1314 51° Northeast 509 586 37,000  Level Minneapolis Center
08:43PM 43.5314 -96.9794 50° Northeast 509 586 37,000  Level Minneapolis Center
08:44PM 43.6214 -96.8300 54° Northeast 509 586 37,000  Level Minneapolis Center
08:45PM 43.7053 -96.6714 55° Northeast 514 592 37,000  Level Minneapolis Center
08:46PM 43.7892 -96.5064 55° Northeast 514 592 37,000  Level Minneapolis Center
08:47PM 43.8728 -96.3408 56° Northeast 514 592 37,000  Level Minneapolis Center
08:48PM 43.9542 -96.1717 55° Northeast 520 598 37,000  Level Minneapolis Center
08:49PM 44.0372 -96.0053 55° Northeast 520 598 37,000  Level Minneapolis Center
08:50PM 44.1200 -95.8383 55° Northeast 520 598 37,000  Level Minneapolis Center
08:51PM 44.2047 -95.6711 55° Northeast 525 604 37,000  Level Minneapolis Center
08:52PM 44.2872 -95.5033 55° Northeast 525 604 37,000  Level Minneapolis Center
08:53PM 44.3692 -95.3378 58° Northeast 525 604 37,000  Level Minneapolis Center
08:54PM 44.4472 -95.1631 67° East 525 604 37,000  Level Minneapolis Center
08:55PM 44.5039 -94.9756 71° East 514 592 37,000  Level Minneapolis Center
08:56PM 44.5503 -94.7817 73° East 520 598 37,000  Level Minneapolis Center
08:57PM 44.5875 -94.6106 71° East 520 598 37,000  Level Minneapolis Center
08:58PM 44.6353 -94.4161 73° East 512 589 37,000  Level Minneapolis Center
08:59PM 44.6783 -94.2211 72° East 513 590 37,000  Level Minneapolis Center
09:00PM 44.7214 -94.0292 73° East 512 589 37,000  Level Minneapolis Center
09:01PM 44.7658 -93.8278 71° East 519 597 37,000  Level Minneapolis Center
09:02PM 44.8164 -93.6144 71° East 519 597 37,000  Level Minneapolis Center
09:03PM 44.8644 -93.4183 71° East 519 597 37,000  Level Minneapolis Center
09:04PM 44.9142 -93.2161 72° East 525 604 37,000  Level Minneapolis Center
09:05PM 44.9556 -93.0372 72° East 530 610 37,000  Level Minneapolis Center
09:06PM 45.0003 -92.8431 71° East 523 602 37,000  Level Minneapolis Center
09:07PM 45.0472 -92.6458 71° East 518 596 37,000  Level Minneapolis Center
09:08PM 45.0936 -92.4539 72° East 518 596 37,000  Level Minneapolis Center
09:09PM 45.1394 -92.2589 72° East 518 596 37,000  Level Minneapolis Center
09:10PM 45.1872 -92.0458 71° East 518 596 37,000  Level Minneapolis Center
09:11PM 45.2344 -91.8472 72° East 524 603 37,000  Level Minneapolis Center
09:12PM 45.2794 -91.6542 71° East 519 597 37,000  Level Minneapolis Center
09:13PM 45.3264 -91.4578 72° East 524 603 37,000  Level Minneapolis Center
09:14PM 45.3725 -91.2583 78° East 529 609 37,000  Level Minneapolis Center
09:15PM 45.4019 -91.0647 96° East 519 597 37,000  Level Minneapolis Center
09:16PM 45.3872 -90.8586 113° Southeast 507 583 37,000  Level Minneapolis Center
09:17PM 45.3328 -90.6781 143° Southeast 502 578 37,000 -900 Level Minneapolis Center
09:18PM 45.2281 -90.5681 182° South 455 524 35,300 -2,460 Descending Minneapolis Center
09:19PM 45.1114 -90.5739 225° Southwest 397 457 32,200 -1,680 Descending Minneapolis Center
09:20PM 45.0308 -90.6867 270° West 335 386 32,000 -120 Descending Minneapolis Center
09:21PM 45.0300 -90.8278 291° West 303 349 32,000  Level Minneapolis Center
09:22PM 45.0642 -90.9556 284° West 318 366 32,000  Level Minneapolis Center
09:23PM 45.0903 -91.1014 287° West 365 420 32,000  Level Minneapolis Center
09:24PM 45.1181 -91.2328 298° West 384 442 32,000 -1,560 Level Minneapolis Center
09:25PM 45.1814 -91.4011 336° Northwest 404 465 29,000 -3,240 Descending Minneapolis Center
09:26PM 45.3017 -91.4764 North 441 507 25,600 -2,520 Descending Minneapolis Center
09:27PM 45.4367 -91.4569 North 439 505 24,000 -840 Descending Minneapolis Center
09:28PM 45.5675 -91.4317 346° North 460 529 24,000  Level Minneapolis Center
09:29PM 45.6828 -91.4719 303° West 447 514 24,000  Level Minneapolis Center
09:30PM 45.7433 -91.6036 267° West 381 438 24,000  Level Minneapolis Center
09:31PM 45.7375 -91.7586 261° West 329 379 24,000 -300 Level Minneapolis Center
09:32PM 45.7208 -91.9106 262° West 366 421 23,500 -780 Descending Minneapolis Center
09:33PM 45.7061 -92.0597 261° West 386 444 22,500 -1,020 Descending Minneapolis Center
09:34PM 45.6892 -92.2147 262° West 396 456 21,500 -960 Descending Minneapolis Center
09:35PM 45.6739 -92.3606 261° West 386 444 20,600 -960 Descending Minneapolis Center
09:36PM 45.6583 -92.5036 260° West 375 432 19,600 -960 Descending Minneapolis Center
09:37PM 45.6428 -92.6344 262° West 370 426 18,700 -900 Descending Minneapolis Center
09:38PM 45.6292 -92.7769 262° West 370 426 17,800 -960 Descending Minneapolis Center
09:39PM 45.6153 -92.9136 253° West 360 414 16,800 -1,140 Descending Minneapolis Center
09:39PM 45.6000 -92.9833 269° West 335 386 16,200 -1,200 Descending Minneapolis TRACON
09:40PM 45.5992 -93.0414 253° West 342 394 15,600 -1,320 Descending Minneapolis Center
09:40PM 45.5833 -93.1167 273° West 325 374 14,800 -1,140 Descending Minneapolis TRACON
09:41PM 45.5850 -93.1661 253° West 330 380 14,500 -1,140 Descending Minneapolis Center
09:41PM 45.5667 -93.2500 277° West 330 380 13,700 -1,200 Descending Minneapolis TRACON
09:42PM 45.5706 -93.2967 266° West 336 387 13,300 -1,200 Descending Minneapolis Center
09:42PM 45.5667 -93.3833 247° West 336 387 12,500 -1,200 Descending Minneapolis TRACON
09:43PM 45.5539 -93.4272 266° West 336 387 12,100 -1,140 Descending Minneapolis Center
09:43PM 45.5500 -93.5167 250° West 351 404 11,400 -1,020 Descending Minneapolis TRACON
09:44PM 45.5372 -93.5664 251° West 350 403 11,100 -420 Descending Minneapolis Center
09:44PM 45.5167 -93.6500 207° Southwest 368 423 11,000 -120 Descending Minneapolis TRACON
09:45PM 45.4767 -93.6789 169° South 336 387 11,000  Level Minneapolis Center
09:45PM 45.4333 -93.6667 146° Southeast 333 383 11,000  Level Minneapolis TRACON
09:46PM 45.3956 -93.6311 102° East 252 290 11,000  Level Minneapolis Center
09:46PM 45.3833 -93.5500 128° Southeast 312 359 11,000  Level Minneapolis TRACON
09:47PM 45.3644 -93.5158 144° Southeast 230 265 11,000  Level Minneapolis Center
09:47PM 45.3333 -93.4833 152° Southeast 280 322 11,000  Level Minneapolis TRACON
09:48PM 45.3019 -93.4597 152° Southeast 253 291 11,000  Level Minneapolis Center
09:48PM 45.2667 -93.4333 167° South 274 315 11,000  Level Minneapolis TRACON
09:49PM 45.2289 -93.4214 162° South 269 310 11,000 -480 Level Minneapolis Center
09:49PM 45.1833 -93.4000 153° Southeast 267 307 10,500 -1,020 Descending Minneapolis TRACON
09:50PM 45.1603 -93.3831 157° South 275 316 10,000 -1,260 Descending Minneapolis Center
09:50PM 45.1333 -93.3667 161° South 267 307 9,400 -1,020 Descending Minneapolis TRACON
09:51PM 45.0936 -93.3478 153° Southeast 265 305 9,000 -420 Descending Minneapolis Center
09:51PM 45.0500 -93.3167 178° South 243 280 9,000  Level Minneapolis TRACON
09:52PM 45.0311 -93.3156 181° South 247 284 9,000  Level Minneapolis Center
09:52PM 45.0000 -93.3167 172° South 223 257 9,000 -360 Level Minneapolis TRACON
09:53PM 44.9664 -93.3100 157° South 237 273 8,700 -900 Descending Minneapolis Center
09:53PM 44.9500 -93.3000 191° South 218 251 8,200 -720 Descending Minneapolis TRACON
09:54PM 44.9122 -93.3100 166° South 232 267 8,000 -240 Descending Minneapolis Center
09:54PM 44.8833 -93.3000 180° South 236 272 8,000  Level Minneapolis TRACON
09:55PM 44.8167 -93.3000 180° South 224 258 8,000 -900 Level Minneapolis TRACON
09:57PM 44.6833 -93.3000 167° South 222 255 5,200 -1,020 Descending Minneapolis TRACON
09:58PM 44.6333 -93.2833 160° South 225 259 5,000 -300 Descending Minneapolis TRACON
09:59PM 44.5667 -93.2500 22° Northeast 226 260 4,600 -300 Descending Minneapolis TRACON
10:02PM 44.6833 -93.1833 347° North 160 184 4,000 -240 Descending Minneapolis TRACON
10:03PM 44.7333 -93.2000 340° North 156 180 3,700 -540 Descending Minneapolis TRACON
10:04PM 44.7667 -93.2167 360° North 132 152 2,900 -780 Descending Minneapolis TRACON
10:05PM 44.8000 -93.2167 360° North 122 140 2,200 -720 Descending Minneapolis TRACON